Location: Borea
(45.6167°N, 23.0167°E)
Time: 02:35:57
(UTC+00:00)

OPS 8068 - Pass Details

Date: 21 February 2024
Orbit: 631 x 963 km, 98.3° (Epoch: 13 April)

Event Time Altitude Azimuth Distance (km) Brightness Sun altitude
Rises 03:39:12 0° 183° (S) 2,912 ? -18.6°
Reaches altitude 10° 03:41:28 10° 191° (S) 2,006 ? -18.2°
Maximum altitude 03:45:33 40° 262° (W) 936 ? -17.5°
Drops below altitude 10° 03:49:46 10° 333° (NNW) 2,075 ? -16.7°
Sets 03:52:10 0° 340° (NNW) 3,026 ? -16.3°
